CW3590 Weather Reports


Display with metric or nautical units.
time (UTC)temp
F
wind
direction
speed
MPH
gust
MPH
rain 1hr
in
rain 24hr
in
rain mn
in
humidity
%
barometer
mb
20260504194007 77 161 3.0 7.0 0.00 0.00 0.00 52 1010.7
20260504193007 78 168 3.0 6.0 0.00 0.00 0.00 54 1010.9
20260504192008 77 164 3.0 7.0 0.00 0.00 0.00 52 1011.0
20260504190007 77 167 3.0 8.0 0.00 0.00 0.00 52 1011.5
20260504185007 76 182 3.0 7.0 0.00 0.00 0.00 52 1011.3
20260504184007 76 161 3.0 12.0 0.00 0.00 0.00 52 1011.5
20260504183007 76 164 4.0 7.0 0.00 0.00 0.00 52 1011.8
20260504182007 75 183 4.0 11.0 0.00 0.00 0.00 52 1012.1
20260504181006 76 177 3.0 11.0 0.00 0.00 0.00 51 1012.2
20260504180006 76 179 3.0 7.0 0.00 0.00 0.00 51 1012.2
20260504175007 75 179 4.0 10.0 0.00 0.00 0.00 52 1012.4
20260504174007 74 176 4.0 9.0 0.00 0.00 0.00 53 1012.5
20260504173006 74 174 3.0 9.0 0.00 0.00 0.00 53 1012.8
20260504172007 74 176 3.0 8.0 0.00 0.00 0.00 54 1013.0
20260504151006 68 195 3.0 7.0 0.00 0.00 0.00 66 1014.2
20260504141007 64 173 2.0 6.0 0.00 0.00 0.00 73 1014.1
20260504050007 63 232 0.0 2.0 0.00 0.00 0.00 69 1015.6
20260504045006 62 232 0.0 2.0 0.00 0.00 0.00 73 1015.6
20260504044006 63 0 0.0 3.0 0.00 0.00 0.00 72 1015.6
20260504043007 64 0 0.0 2.0 0.00 0.00 0.00 70 1015.6
20260504042006 64 0 0.0 1.0 0.00 0.00 0.00 68 1015.7
20260504041007 66 0 0.0 1.0 0.00 0.00 0.00 63 1015.7
20260504040006 66 0 0.0 4.0 0.00 0.00 0.00 63 1015.7
20260504035006 65 0 0.0 2.0 0.00 0.00 0.00 65 1015.7
20260504034006 65 0 0.0 2.0 0.00 0.00 0.00 69 1015.8
20260504033006 65 0 0.0 0.0 0.00 0.00 0.00 66 1015.7
20260504032007 66 0 0.0 0.0 0.00 0.00 0.00 67 1015.8
20260504031006 65 0 0.0 1.0 0.00 0.00 0.00 68 1015.8
20260504025006 66 0 0.0 1.0 0.00 0.00 0.00 66 1015.8
20260504023006 68 0 0.0 1.0 0.00 0.00 0.00 62 1015.7
20260504022005 68 0 0.0 1.0 0.00 0.00 0.00 61 1015.6
20260504020005 68 0 0.0 1.0 0.00 0.00 0.00 63 1015.6
20260504015006 66 0 0.0 2.0 0.00 0.00 0.00 66 1015.6
20260504014005 67 0 0.0 1.0 0.00 0.00 0.00 64 1015.5
20260504012006 69 0 0.0 0.0 0.00 0.00 0.00 63 1015.3
20260504010007 72 0 0.0 2.0 0.00 0.00 0.00 53 1015.2
20260504005006 73 196 0.0 1.0 0.00 0.00 0.00 49 1015.1
20260504004006 74 197 0.0 3.0 0.00 0.00 0.00 48 1015.2
20260504003005 75 197 0.0 2.0 0.00 0.00 0.00 46 1015.3
20260504002006 75 196 1.0 3.0 0.00 0.00 0.00 45 1015.4
20260504001005 76 208 1.0 3.0 0.00 0.00 0.00 45 1015.4
20260504000007 76 222 1.0 3.0 0.00 0.00 0.00 43 1015.5
20260503235006 76 200 2.0 3.0 0.00 0.00 0.00 43 1015.5
20260503233005 77 168 2.0 6.0 0.00 0.00 0.00 44 1015.6
20260503232005 77 176 2.0 6.0 0.00 0.00 0.00 43 1015.7
20260503231005 77 192 2.0 6.0 0.00 0.00 0.00 41 1015.7
20260503230005 77 200 2.0 6.0 0.00 0.00 0.00 40 1015.7
20260503225005 78 181 2.0 5.0 0.00 0.00 0.00 41 1015.7
20260503224006 78 174 2.0 4.0 0.00 0.00 0.00 42 1015.7
20260503223006 78 195 1.0 8.0 0.00 0.00 0.00 40 1015.7
20260503222006 78 189 2.0 4.0 0.00 0.00 0.00 42 1015.8
20260503221006 79 261 2.0 9.0 0.00 0.00 0.00 41 1015.9
20260503215005 79 240 2.0 7.0 0.00 0.00 0.00 39 1016.1
20260503214005 79 187 2.0 5.0 0.00 0.00 0.00 39 1016.3
20260503213005 79 150 2.0 5.0 0.00 0.00 0.00 40 1016.4
20260503211007 78 206 2.0 6.0 0.00 0.00 0.00 41 1017.0
20260503210006 78 251 2.0 7.0 0.00 0.00 0.00 42 1017.0
20260503205005 77 244 2.0 7.0 0.00 0.00 0.00 43 1017.2
20260503203006 78 247 2.0 6.0 0.00 0.00 0.00 41 1017.5
20260503202005 78 219 2.0 9.0 0.00 0.00 0.00 40 1017.8
20260503201006 79 217 3.0 7.0 0.00 0.00 0.00 41 1017.9
20260503200005 79 267 4.0 12.0 0.00 0.00 0.00 40 1018.1
20260503195005 78 264 3.0 10.0 0.00 0.00 0.00 38 1018.3